Tracking 20242 objects as of 24-Jan-2020
HD Live streaming from Space Station
objects crossing your sky now

COSMOS 2251 DEB

Track COSMOS 2251 DEB now!
10-day predictions


NORAD ID: 37132
Int'l Code: 1993-036BHE
Perigee: 671.5 km
Apogee: 753.5 km
Inclination: 74.0 °
Period: 98.9 minutes
Semi major axis: 7083 km
RCS: 0.0042 m2 (small)
Launch date: June 16, 1993
Source: Commonwealth of Independent States (former USSR) (CIS)
Launch site: PLESETSK MISSILE AND SPACE COMPLEX (PKMTR)

Note: This is SATELLITE DEBRIS
aabbcc
Your satellite tracking list
Your tracking list is empty




NASA's NSSDC Master Catalog

Two Line Element Set (TLE):
1 37132U 93036BHE 20022.74877351 +.00000399 +00000-0 +95024-4 0  9990
2 37132 074.0102 039.2431 0057928 004.4022 355.7638 14.56229455309807
Source of the keplerian elements: AFSPC